Hourly Data Report for September 09, 2017

All times are specified in Local Standard Time (LST). Add 1 hour to adjust for Daylight Saving Time where and when it is observed.

CORAL HARBOUR A
NUNAVUT

64°11'36.000" N
83°21'34.000" W
62.20 m
2301002
71915
YZS

Download Data

Hourly Data (September 2017)
Hourly Data Report for September 9, 2017
Temp Definition
°C
Dew Point Temp Definition
°C
Rel Hum Definition
%
Wind Dir Definition
10's deg

Wind Spd Definition
km/h
Visibility Definition
km
Stn Press Definition
kPa
Hmdx Definition


Wind Chill Definition


Weather Definition


TIME
00:00 Legend Double Dagger 8.0 7.5 97 26 24 6.4 97.57     Fog
01:00 Legend Double Dagger 8.8 8.0 95 27 35 6.4 97.62     Fog
02:00 Legend Double Dagger 10.7 9.1 90 29 28 24.1 97.72     LegendNANA
03:00 Legend Double Dagger 10.3 8.2 87 29 26 24.1 97.78     LegendNANA
04:00 Legend Double Dagger 9.4 6.7 83 28 46 24.1 97.77     Mainly Clear
05:00 Legend Double Dagger 8.8 6.4 85 27 54 24.1 97.86     LegendNANA
06:00 Legend Double Dagger 8.6 6.3 86 27 40 24.1 97.97     LegendNANA
07:00 Legend Double Dagger 9.0 6.4 84 27 43 24.1 98.04     Mostly Cloudy
08:00 Legend Double Dagger 8.2 7.1 92 28 40 9.7 98.11     Rain Showers,Fog
09:00 Legend Double Dagger 8.3 7.0 91 30 28 24.1 98.19     Rain Showers
10:00 Legend Double Dagger 8.1 5.5 84 32 19 24.1 98.31     Rain Showers
11:00 Legend Double Dagger 4.5 1.6 82 2 43 24.1 98.57     Rain Showers
12:00 Legend Double Dagger 4.3 -0.6 70 36 37 24.1 98.84     LegendNANA
13:00 Legend Double Dagger 4.9 -0.8 66 34 43 24.1 99.03     Mostly Cloudy
14:00 Legend Double Dagger 5.4 -2.9 55 34 48 24.1 99.21     LegendNANA
15:00 Legend Double Dagger 4.5 -2.0 63 33 50 24.1 99.40     LegendNANA
16:00 Legend Double Dagger 3.1 -2.5 66 34 47 24.1 99.54     Mainly Clear
17:00 Legend Double Dagger 2.8 -2.1 70 33 45 24.1 99.74     LegendNANA
18:00 Legend Double Dagger 2.5 -2.6 69 32 48 24.1 99.91     LegendNANA
19:00 Legend Double Dagger 1.7 -3.3 70 32 33 24.1 100.08     Mostly Cloudy
20:00 Legend Double Dagger 1.8 -3.7 67 32 32 24.1 100.19     LegendNANA
21:00 Legend Double Dagger 0.7 -2.5 79 31 30 24.1 100.33     LegendNANA
22:00 Legend Double Dagger 0.4 -2.6 80 32 34 24.1 100.41     Mostly Cloudy
23:00 Legend Double Dagger 0.8 -3.0 76 33 32 24.1 100.51     LegendNANA

Notes on Data Quality.

Legend

  • E = Estimated
  • M = Missing
  • NA = Not Available
  • ‡ = Partner data that is not subject to review by the National Climate Archives
Date modified: